This demonstration page uses our WeatherBlox Daily Observations layout. Learn more.

38.88101, -77.10428

Hourly Observations for January 8, 2016

Temp ( °F °C ) Dew Point ( °F °C ) Humidity (%) Winds ( mph kmh ) Pressure ( in mb ) Visibility ( mi km ) Precip ( " mm )
12:14 am 00:14 Cloudy with Mist and Fog 39 4 37 3 93 93 N 5 7 30.18 1022 3 4.828032 0 0
12:52 am 00:52 Cloudy with Mist and Fog 39 4 37 3 93 93 N 6 9 30.18 1022 3 4.828032 0 0
1:22 am 01:22 Cloudy with Mist and Fog 39 4 37 3 93 93 N 7 11 30.18 1022 3 4.828032 0 0
1:52 am 01:52 Cloudy with Mist and Fog 39 4 39 4 100 100 N 5 7 30.18 1022 3 4.828032 0 0
2:52 am 02:52 Cloudy with Mist and Fog 39 4 37 3 93 93 N 6 9 30.21 1023 3 4.828032 0 0
3:00 am 03:00 Cloudy with Mist and Fog 39 4 37 3 93 93 N 7 11 30.18 1022 2 3.218688 0 0
3:09 am 03:09 Cloudy with Mist and Fog 39 4 37 3 93 93 N 6 9 30.21 1023 1.5 2.414016 0 0
3:33 am 03:33 Cloudy with Mist and Fog 39 4 39 4 100 100 N 5 7 30.21 1023 2 3.218688 0 0
3:52 am 03:52 Cloudy with Mist and Fog 39 4 39 4 100 100 NNW 3 6 30.21 1023 2 3.218688 0 0
4:19 am 04:19 Cloudy with Mist and Fog 39 4 39 4 100 100 Calm 30.18 1022 1.75 2.816352 0 0
4:23 am 04:23 Cloudy with Mist and Fog 39 4 39 4 100 100 Calm 30.18 1022 1.75 2.816352 0 0
4:39 am 04:39 Cloudy with Mist and Fog 39 4 39 4 100 100 NE 3 6 30.18 1022 2.5 4.02336 0 0
4:44 am 04:44 Cloudy with Mist and Fog 39 4 37 3 93 93 NE 5 7 30.18 1022 3 4.828032 0 0
4:52 am 04:52 Cloudy with Mist and Fog 39 4 37 3 93 93 NE 7 11 30.18 1022 4 6.437376 0 0
5:32 am 05:32 Cloudy with Mist and Fog 39 4 37 3 93 93 NNE 5 7 30.18 1022 5 8.04672 0 0
5:52 am 05:52 Cloudy with Mist and Fog 39 4 37 3 93 93 NNE 7 11 30.18 1022 5 8.04672 0 0
6:04 am 06:04 Cloudy with Mist and Fog 39 4 37 3 93 93 NNE 5 7 30.18 1022 5 8.04672 0 0
6:13 am 06:13 Cloudy with Mist and Fog 39 4 37 3 93 93 NNE 6 9 30.18 1022 5 8.04672 0 0
6:16 am 06:16 Cloudy with Mist and Fog 39 4 37 3 93 93 NNE 5 7 30.18 1022 5 8.04672 0 0
6:39 am 06:39 Cloudy with Mist and Fog 39 4 37 3 93 93 NE 5 7 30.18 1022 5 8.04672 0 0
6:52 am 06:52 Cloudy with Mist and Fog 39 4 37 3 93 93 NE 5 7 30.18 1022 6 9.656064 0 0
7:40 am 07:40 Cloudy with Mist and Fog 39 4 37 3 93 93 NE 6 9 30.18 1022 4 6.437376 0 0
7:52 am 07:52 Cloudy with Mist and Fog 39 4 37 3 93 93 NE 6 9 30.18 1022 3 4.828032 0 0
8:52 am 08:52 Cloudy with Mist and Fog 41 5 37 3 87 87 NNE 7 11 30.18 1022 4 6.437376 0 0
9:13 am 09:13 Cloudy with Mist and Fog 41 5 37 3 87 87 NE 7 11 30.18 1022 3 4.828032 0 0
9:52 am 09:52 Cloudy with Light Drizzle 41 5 39 4 93 93 NE 6 9 30.21 1023 2.5 4.02336 0.001 0.001
10:05 am 10:05 Cloudy with Light Drizzle 41 5 39 4 93 93 ENE 6 9 30.18 1022 1.75 2.816352 0.001 0.001
10:52 am 10:52 Cloudy with Light Drizzle 41 5 39 4 93 93 NNE 5 7 30.18 1022 1.25 2.01168 0.001 0.001
11:52 am 11:52 Cloudy with Light Drizzle 43 6 41 5 93 93 NE 5 7 30.15 1021 1.75 2.816352 0.001 0.001
12:52 pm 12:52 Cloudy with Light Drizzle 43 6 41 5 93 93 NE 6 9 30.15 1021 1.25 2.01168 0.001 0.001
1:52 pm 13:52 Cloudy with Light Drizzle 43 6 41 5 93 93 NE 6 9 30.12 1020 2 3.218688 0.001 0.001
2:52 pm 14:52 Cloudy with Light Drizzle 43 6 41 5 93 93 NE 6 9 30.12 1020 2 3.218688 0.001 0.001
2:59 pm 14:59 Cloudy with Light Drizzle 43 6 41 5 93 93 ENE 6 9 30.12 1020 1.5 2.414016 0.001 0.001
3:52 pm 15:52 Cloudy with Mist and Fog 43 6 41 5 93 93 NE 7 11 30.12 1020 2 3.218688 0.001 0.001
4:24 pm 16:24 Cloudy with Mist and Fog 43 6 41 5 93 93 ENE 5 7 30.15 1021 1.75 2.816352 0 0
4:35 pm 16:35 Cloudy with Mist and Fog 43 6 41 5 93 93 NE 3 6 30.15 1021 2 3.218688 0 0
4:49 pm 16:49 Cloudy with Mist and Fog 43 6 41 5 93 93 NE 5 7 30.15 1021 1.75 2.816352 0 0
4:52 pm 16:52 Cloudy with Mist and Fog 43 6 41 5 93 93 NE 5 7 30.15 1021 1.75 2.816352 0 0
5:00 pm 17:00 Cloudy with Mist and Fog 43 6 41 5 93 93 Calm 30.15 1021 2.5 4.02336 0 0
5:16 pm 17:16 Cloudy with Mist and Fog 43 6 39 4 87 87 Calm 30.15 1021 3 4.828032 0 0
5:52 pm 17:52 Cloudy with Light Drizzle 43 6 41 5 93 93 Calm 30.15 1021 3 4.828032 0.001 0.001
6:23 pm 18:23 Cloudy with Light Rain 43 6 41 5 93 93 NNE 5 7 30.15 1021 2.5 4.02336 0.001 0.001
6:25 pm 18:25 Cloudy with Light Drizzle 43 6 41 5 93 93 NNE 5 7 30.15 1021 2.5 4.02336 0.001 0.001
6:52 pm 18:52 Cloudy with Mist and Fog 43 6 39 4 87 87 NE 7 11 30.15 1021 3 4.828032 0.001 0.001
7:12 pm 19:12 Cloudy with Light Rain 43 6 39 4 87 87 N 3 6 30.15 1021 4 6.437376 0 0
7:52 pm 19:52 Cloudy with Mist and Fog 43 6 39 4 87 87 Calm 30.15 1021 4 6.437376 0.001 0.001
8:52 pm 20:52 Cloudy with Mist and Fog 43 6 39 4 87 87 N 3 6 30.15 1021 6 9.656064 0 0
9:52 pm 21:52 Cloudy 45 7 39 4 81 81 Calm 30.15 1021 8 12.874752 0 0
10:52 pm 22:52 Cloudy 45 7 39 4 81 81 Calm 30.15 1021 10 16.09344 0.001 0.001
11:52 pm 23:52 Cloudy 43 6 39 4 87 87 NNE 3 6 30.15 1021 9 14.484096 0 0

Powered by AerisWeather